User: anonymous   Login
Location: downtown San Diego
(32.7310°N, 117.1990°W)
Time: 17:59:35
(UTC-07:00)
Language:

H-2A R/B - Orbit

View from above orbital plane
View from above orbital plane
View from above satellite
View from above satellite

Ground track
Ground track

The orbit data is extracted from the following two-line orbital elements,

1 27601U 02056E   19290.23721375  .00000043  00000-0  30979-4 0  9999
2 27601  98.2618 333.1357 0070933 284.9297 123.2498 14.31912488879745
Epoch (UTC): 17 October 2019 05:41:35
Eccentricity: 0.0070933
inclination: 98.2618°
perigee height: 734 km
apogee height: 836 km
right ascension of ascending node: 333.1357°
argument of perigee: 284.9297°
revolutions per day: 14.31912488
mean anomaly at epoch: 123.2498°
orbit number at epoch: 87974

The dashed part of the orbit path shows where the satellite is in the earth's shadow,  

DLR